OUR AIRPORTS

Not only does Van Anda Aviation provide a wide selection of affordable planes to rent, we also provide various locations across the Central Florida region for your accessibility. Van Anda Aviation is built for pilots, by pilots. We want to ensure pilots across Central Florida have easy access to aircraft rental, without jumping through all the red-tape. Simply go for a checkout with one of our authorized instructors, and you’re good to fly! Below are just a few airports we currently fly from.

If you want easy, accessible flying, register for an account with us today – it’s free!

ORLANDO EXECUTIVE AIRPORT

  • Runways: 07/25 and 13/31

  • Weather SummaryVFR

  • METAR: KORL 030353Z AUTO 07004KT 10SM CLR 18/14 A3032 RMK AO2 SLP269 T01780144

KISSIMMEE GATEWAY AIRPORT

  • Runways: 06/24 and 15/33

  • Weather Summary: VFR

  • METAR: KISM 030356Z AUTO 08006KT 10SM SCT040 BKN048 20/16 A3033 RMK AO2 SLP270 T02000161 PNO $

ORLANDO NORTH AIRPARK

MERRITT ISLAND AIRPORT